Weather History for Triuchirapalli, India

Change the Weather History Date:

Wednesday, February 20, 2013

  Actual Average Record
Temperature  
Mean Temperature 84 °F -  
Max Temperature 94 °F 90 °F 100 °F (2012)
Min Temperature 74 °F 75 °F 69 °F (2006)
Cooling Degree Days 19    
Growing Degree Days 34 (Base 50)    
Moisture  
Dew Point 71 °F    
Average Humidity 68    
Maximum Humidity 94    
Minimum Humidity 32    
Precipitation  
Precipitation 0.00 in - - ()
Sea Level Pressure  
Sea Level Pressure 29.89 in    
Wind  
Wind Speed 7 mph ()    
Max Wind Speed 14 mph    
Max Gust Speed -    
Visibility 2.7 miles    
Events      
Averages and records for this station are not official NWS values.
T = Trace of Precipitation, MM = Missing Value Source: Averaged Metar Reports

Daily Weather History Graph

Daily Weather History Graph

Search for Another Location

Airport:

Trip Planner

Search our weather history database for the weather conditions in past years. The results will help you decide how hot, cold, wet, or windy it might be!

Date:

Astronomy

Feb. 20, 2013 Rise Set
Actual Time 6:33 AM IST 6:24 PM IST
Civil Twilight 6:12 AM IST 6:45 PM IST
Nautical Twilight 5:47 AM IST 7:10 PM IST
Astronomical Twilight 5:23 AM IST 7:34 PM IST
Moon 1:52 PM IST 2:01 AM IST
Length of Visible Light 12h 32m
Length of Day
11h 50m
Waxing Gibbous, 72% of the Moon is Illuminated
Feb 20
Waxing Gibbous
Feb 26
Full
Mar 5
Last Quarter
Mar 12
New
Mar 19
First Quarter

Hourly Weather History & Observations

Time (IST) Temp. Heat Index Dew Point Humidity Pressure Visibility Wind Dir Wind Speed Gust Speed Precip Events Conditions
12:40 AM 78.8 °F - 75.2 °F 89% 29.92 in 3.7 mi NE 2.3 mph - N/A   Mostly Cloudy
1:10 AM 78.8 °F - 75.2 °F 89% 29.92 in 3.1 mi NE 4.6 mph - N/A   Haze
1:40 AM 78.8 °F - 75.2 °F 89% 29.89 in 3.1 mi NE 6.9 mph - N/A   Haze
2:10 AM 78.8 °F - 75.2 °F 89% 29.89 in 3.1 mi NE 6.9 mph - N/A   Haze
2:30 AM 78 °F - 76 °F 94% 29.87 in 2 mi SW 4.6 mph - -   Haze
2:40 AM 77.0 °F - 75.2 °F 94% 29.89 in 3.1 mi NE 5.8 mph - N/A   Haze
3:10 AM 77.0 °F - 75.2 °F 94% 29.86 in 3.1 mi NE 4.6 mph - N/A   Haze
3:40 AM 77.0 °F - 75.2 °F 94% 29.86 in 3.1 mi NE 8.1 mph - N/A   Haze
4:40 AM 77.0 °F - 73.4 °F 89% 29.86 in 1.9 mi NE 6.9 mph - N/A   Haze
5:30 AM 75 °F - 73 °F 90% 29.86 in 1 mi NNE 8.1 mph - -   Haze
5:40 AM 75.2 °F - 73.4 °F 94% 29.86 in 1.6 mi NE 6.9 mph - N/A   Haze
6:10 AM 75.2 °F - 73.4 °F 94% 29.86 in 1.6 mi ENE 6.9 mph - N/A   Haze
6:40 AM 77.0 °F - 73.4 °F 89% 29.89 in 1.6 mi NE 8.1 mph - N/A   Haze
7:40 AM 77.0 °F - 71.6 °F 83% 29.92 in 1.9 mi NE 9.2 mph - N/A   Haze
8:10 AM 78.8 °F - 71.6 °F 78% 29.95 in 1.9 mi NE 8.1 mph - N/A   Haze
8:30 AM 79 °F - 72 °F 72% 29.94 in 1 mi NE 6.9 mph - -   Haze
8:40 AM 78.8 °F - 71.6 °F 78% 29.95 in 1.9 mi NE 8.1 mph - N/A   Haze
9:40 AM 82.4 °F 88.2 °F 73.4 °F 74% 29.95 in 2.5 mi ENE 9.2 mph - N/A   Haze
10:10 AM 82.4 °F 88.2 °F 73.4 °F 74% 29.95 in 2.5 mi NE 10.4 mph - N/A   Haze
10:40 AM 84.2 °F 89.6 °F 71.6 °F 66% 29.95 in 2.5 mi East 10.4 mph - N/A   Haze
11:10 AM 86.0 °F 91.8 °F 71.6 °F 62% 29.95 in 2.5 mi ENE 9.2 mph - N/A   Haze
11:30 AM 88 °F - 69 °F 44% 29.94 in 2 mi ENE 11.5 mph - -   Haze
11:40 AM 87.8 °F 92.6 °F 69.8 °F 55% 29.95 in 2.5 mi ENE 10.4 mph - N/A   Haze
12:10 PM 89.6 °F 94.7 °F 69.8 °F 52% 29.92 in 2.5 mi ENE 9.2 mph - N/A   Haze
12:40 PM 89.6 °F 94.7 °F 69.8 °F 52% 29.89 in 2.5 mi East 9.2 mph - N/A   Haze
1:40 PM 93.2 °F 98.8 °F 69.8 °F 46% 29.86 in 3.1 mi ENE 9.2 mph - N/A   Haze
2:10 PM 93.2 °F 98.8 °F 69.8 °F 46% 29.86 in 3.1 mi ENE 8.1 mph - N/A   Haze
2:30 PM 92 °F - 66 °F 33% 29.83 in 2 mi ENE 6.9 mph - -   Haze
2:40 PM 93.2 °F 97.7 °F 68.0 °F 44% 29.83 in 3.7 mi ENE 6.9 mph - N/A   Scattered Clouds
3:10 PM 93.2 °F 97.7 °F 68.0 °F 44% 29.83 in 3.7 mi NE 9.2 mph - N/A   Scattered Clouds
3:40 PM 93.2 °F 97.7 °F 68.0 °F 44% 29.83 in 3.7 mi East 9.2 mph - N/A   Scattered Clouds
4:10 PM 91.4 °F 95.4 °F 68.0 °F 46% 29.80 in 3.7 mi East 11.5 mph - N/A   Scattered Clouds
4:40 PM 91.4 °F 95.4 °F 68.0 °F 46% 29.80 in 3.7 mi East 13.8 mph - N/A   Scattered Clouds
5:10 PM 91.4 °F 96.8 °F 69.8 °F 49% 29.80 in 3.7 mi ENE 13.8 mph - N/A   Scattered Clouds
5:30 PM 90 °F - 64 °F 32% 29.81 in 2 mi East 13.8 mph - -   Haze
5:40 PM 89.6 °F 93.4 °F 68.0 °F 49% 29.80 in 3.7 mi East 13.8 mph - N/A   Partly Cloudy
6:10 PM 87.8 °F 91.4 °F 68.0 °F 52% 29.83 in 3.7 mi East 11.5 mph - N/A   Partly Cloudy
7:10 PM 84.2 °F 87.3 °F 68.0 °F 58% 29.86 in 3.1 mi East 12.7 mph - N/A   Haze
7:40 PM 82.4 °F 85.4 °F 68.0 °F 62% 29.86 in 3.1 mi East 11.5 mph - N/A   Haze
8:10 PM 82.4 °F 85.4 °F 68.0 °F 62% 29.89 in 3.1 mi East 12.7 mph - N/A   Haze
8:30 PM 82 °F - 67 °F 52% 29.89 in 2 mi East 11.5 mph - -   Haze
8:40 PM 82.4 °F 85.4 °F 68.0 °F 62% 29.89 in 3.1 mi East 12.7 mph - N/A   Haze
9:10 PM 82.4 °F 85.4 °F 68.0 °F 62% 29.92 in 3.1 mi East 11.5 mph - N/A   Haze
9:40 PM 80.6 °F 83.2 °F 68.0 °F 65% 29.92 in 3.1 mi East 8.1 mph - N/A   Haze
10:10 PM 80.6 °F 83.9 °F 69.8 °F 70% 29.92 in 3.1 mi ENE 5.8 mph - N/A   Haze
10:40 PM 78.8 °F - 69.8 °F 74% 29.95 in 2.5 mi ENE 6.9 mph - N/A   Haze
11:10 PM 78.8 °F - 69.8 °F 74% 29.95 in 2.5 mi ENE 6.9 mph - N/A   Haze
11:30 PM 77 °F - 73 °F 84% 29.93 in 1 mi NE 6.9 mph - -   Haze
11:40 PM 77.0 °F - 71.6 °F 83% 29.95 in 2.5 mi NE 5.8 mph - N/A   Haze